This is the latest recevied weather packets stored in our database for station/object DG9BJA-13. If no packets are shown the sender has not sent any weather packets the latest 10 day(s).
| Time | Temp. | Humidity | Pressure | Rain* | Wind** | Luminosity | Snow |
|---|---|---|---|---|---|---|---|
| 1777665977 | 17.22° C | 53% | 1022.4 hPa | 0 mm | - | 0 W/m² | - |
| 1777665377 | 17.78° C | 52% | 1022.5 hPa | 0 mm | - | 0 W/m² | - |
| 1777664777 | 17.78° C | 51% | 1022.5 hPa | 0 mm | - | 0 W/m² | - |
| 1777664177 | 18.33° C | 50% | 1022.5 hPa | 0 mm | - | 0 W/m² | - |
| 1777663577 | 18.33° C | 49% | 1022.4 hPa | 0 mm | - | 0 W/m² | - |
| 1777662977 | 18.89° C | 48% | 1022.5 hPa | 0 mm | - | 0 W/m² | - |
| 1777662377 | 19.44° C | 47% | 1022.5 hPa | 0 mm | - | 0 W/m² | - |
| 1777661777 | 19.44° C | 46% | 1022.5 hPa | 0 mm | - | 3 W/m² | - |
| 1777661177 | 20° C | 45% | 1022.5 hPa | 0 mm | - | 7 W/m² | - |
| 1777660577 | 20° C | 45% | 1022.5 hPa | 0 mm | - | 11 W/m² | - |
| 1777659977 | 20.56° C | 43% | 1022.5 hPa | 0 mm | - | 14 W/m² | - |
| 1777659377 | 21.11° C | 43% | 1022.5 hPa | 0 mm | - | 18 W/m² | - |
| 1777658777 | 21.67° C | 41% | 1022.5 hPa | 0 mm | - | 58 W/m² | - |
| 1777658177 | 21.67° C | 40% | 1022.4 hPa | 0 mm | - | 93 W/m² | - |
| 1777656977 | 22.22° C | 38% | 1022.4 hPa | 0 mm | - | 135 W/m² | - |
| 1777656377 | 22.22° C | 38% | 1022.5 hPa | 0 mm | - | 156 W/m² | - |
| 1777655777 | 22.78° C | 38% | 1022.5 hPa | 0 mm | - | 183 W/m² | - |
| 1777655176 | 22.78° C | 36% | 1022.9 hPa | 0 mm | - | 206 W/m² | - |
| 1777654577 | 22.78° C | 36% | 1023 hPa | 0 mm | - | 230 W/m² | - |
| 1777653977 | 22.78° C | 37% | 1023 hPa | 0 mm | - | 257 W/m² | - |
| 1777653376 | 22.78° C | 37% | 1023 hPa | 0 mm | - | 283 W/m² | - |
| 1777652776 | 23.33° C | 36% | 1023.2 hPa | 0 mm | - | 311 W/m² | - |
| 1777652176 | 23.33° C | 36% | 1023.2 hPa | 0 mm | - | 338 W/m² | - |
| 1777651576 | 22.78° C | 36% | 1023.4 hPa | 0 mm | - | 359 W/m² | - |
| 1777650976 | 23.33° C | 35% | 1023.6 hPa | 0 mm | - | 388 W/m² | - |
* Rain latest hour (hover to see other rain measurements)
** Current wind speed in m/s (hover to see current wind gust speed)